{"data":{"norad_id":54666,"intl_designator":"2022-166AA","name":"ONEWEB-0602","alt_names":[],"object_type":"PAYLOAD","status":"ACTIVE","operator":null,"country":"UK","launch_date":"2022-12-08","launch_site_code":"AFETR","launch_vehicle":null,"mission":null,"orbit_class":"UNKNOWN","rcs_meters":null,"size_class":null,"mass_kg":null,"dimensions":null,"purposes":["comms"],"wikipedia_slug":null,"has_3d_model":false,"image_url":null,"decayed_at":null,"tle_current":{"epoch":"2026-05-24T23:41:55.986720Z","epoch_age_seconds":86830,"freshness":"FRESH","line1":"1 54666U 22166AA  26144.98745355  .00000049  00000+0  85936-4 0  9994","line2":"2 54666  87.9250 248.6176 0001968  91.8944 268.2415 13.21824908168486","mean_motion":13.21824908,"eccentricity":0.0001968,"inclination_deg":87.925,"raan_deg":248.6176,"arg_perigee_deg":91.8944,"mean_anomaly_deg":268.2415,"bstar":8.5936e-5,"rev_number":16848,"period_min":108.94029846803,"perigee_km":1176.2705297586,"apogee_km":1179.2445298456,"semimajor_km":7555.8945298021,"source":"CELESTRAK","updated_at":"2026-05-25T13:38:22.635074Z"}}}